Warning: include(wt_data_intl.php): failed to open stream: No such file or directory in /datas/vol1/w4a123858/var/www/legheer.be/meteo3/wuh.php on line 24

Warning: include(): Failed opening 'wt_data_intl.php' for inclusion (include_path='.:/opt/alt/php56/usr/share/pear') in /datas/vol1/w4a123858/var/www/legheer.be/meteo3/wuh.php on line 24
| Quelques graphiques

Language: 


Des rapports , des résumés tant et plus, au choix de chacun....


Données statistiques de la station
Quotidien Rapport Mai 2, 2017 Unités:  Métrique    Anglais   les deux
« Précédent Jour
Suivant Jour »
Quotidien Hebdomadaire Mensuel Annuel Actuel
  Haut: Bas: Moyen:
Température: 18.9 °C 2.6 °C 10.5 °C
Pt de rosée: 10.0 °C 2.0 °C 6.8 °C
Humidité: 98 % 45 % 79 %
Vitesse du vent: 19.8 km/h 0.0 km/h 4.3 km/h
Rafales: 24.8 km/h - -
Vent:- - West
Pression: 1018.2 hPa 1013.1 hPa -
Précipitation: 0.3 mm    
Historical Graphs
 
 
Données statistiques pour Mai 2, 2017
Heure Température Point de rosée Pression Vent Vitesse du vent Refales Humidité Pluie (taux horaire)
00:01 7.7 °C 5.0 °C 1013.1 hPa Calm     81 % 0.0 mm
00:06 7.6 °C 5.0 °C 1013.1 hPa Calm   3.5 km/h 81 % 0.0 mm
00:11 7.5 °C 5.0 °C 1013.1 hPa Calm   4.7 km/h 81 % 0.0 mm
00:16 7.4 °C 5.0 °C 1013.1 hPa Calm   5.8 km/h 82 % 0.0 mm
00:21 7.3 °C 5.0 °C 1013.1 hPa Calm   6.1 km/h 82 % 0.0 mm
00:26 7.3 °C 5.0 °C 1013.1 hPa Calm   6.1 km/h 82 % 0.0 mm
00:31 7.3 °C 5.0 °C 1013.1 hPa NNE 4.0 km/h 6.4 km/h 83 % 0.0 mm
00:36 7.2 °C 5.0 °C 1013.1 hPa Calm   6.4 km/h 83 % 0.0 mm
00:41 7.2 °C 5.0 °C 1013.1 hPa Calm   5.5 km/h 83 % 0.0 mm
00:46 7.2 °C 5.0 °C 1013.1 hPa Calm   4.3 km/h 83 % 0.0 mm
00:51 7.3 °C 5.0 °C 1013.1 hPa NNE 4.7 km/h 5.5 km/h 84 % 0.0 mm
00:56 7.5 °C 6.0 °C 1013.1 hPa NNE 4.0 km/h 5.8 km/h 85 % 0.0 mm
01:01 7.6 °C 6.0 °C 1013.1 hPa Calm   5.8 km/h 85 % 0.0 mm
01:06 7.6 °C 6.0 °C 1013.1 hPa Calm   5.8 km/h 85 % 0.0 mm
01:11 7.6 °C 6.0 °C 1013.1 hPa Calm   5.5 km/h 85 % 0.0 mm
01:16 7.6 °C 6.0 °C 1013.1 hPa NE 1.4 km/h 5.8 km/h 85 % 0.0 mm
01:21 7.6 °C 6.0 °C 1013.1 hPa Calm   5.8 km/h 85 % 0.0 mm
01:26 7.5 °C 6.0 °C 1013.1 hPa NE 4.3 km/h 5.5 km/h 85 % 0.0 mm
01:31 7.5 °C 6.0 °C 1013.1 hPa Calm   5.5 km/h 85 % 0.0 mm
01:36 7.5 °C 6.0 °C 1014.1 hPa Calm   5.0 km/h 85 % 0.0 mm
01:41 7.5 °C 6.0 °C 1014.1 hPa Calm   5.0 km/h 85 % 0.0 mm
01:47 7.3 °C 5.0 °C 1014.1 hPa NNW 1.4 km/h 7.9 km/h 85 % 0.0 mm
01:52 7.1 °C 5.0 °C 1014.1 hPa Calm   7.9 km/h 85 % 0.0 mm
01:57 7.1 °C 5.0 °C 1014.1 hPa Calm     85 % 0.0 mm
02:02 7.0 °C 5.0 °C 1014.1 hPa Calm   2.6 km/h 85 % 0.0 mm
02:07 6.8 °C 5.0 °C 1014.1 hPa Calm   2.6 km/h 85 % 0.0 mm
02:12 6.5 °C 5.0 °C 1014.1 hPa Calm     85 % 0.0 mm
02:17 6.3 °C 4.0 °C 1014.1 hPa Calm     85 % 0.0 mm
02:22 6.2 °C 4.0 °C 1014.1 hPa Calm     85 % 0.0 mm
02:27 6.0 °C 4.0 °C 1014.1 hPa Calm     85 % 0.0 mm
02:32 5.8 °C 4.0 °C 1014.1 hPa Calm     86 % 0.0 mm
02:37 5.6 °C 4.0 °C 1014.1 hPa Calm     86 % 0.0 mm
02:42 5.3 °C 3.0 °C 1014.1 hPa Calm     85 % 0.0 mm
02:47 5.1 °C 3.0 °C 1014.1 hPa Calm     85 % 0.0 mm
02:52 5.1 °C 3.0 °C 1014.1 hPa Calm     86 % 0.0 mm
02:57 5.0 °C 3.0 °C 1014.1 hPa Calm     86 % 0.0 mm
03:02 5.0 °C 3.0 °C 1014.1 hPa Calm     86 % 0.0 mm
03:07 4.9 °C 3.0 °C 1014.1 hPa NNE 4.7 km/h 4.7 km/h 87 % 0.0 mm
03:12 4.9 °C 3.0 °C 1014.1 hPa Calm   4.7 km/h 88 % 0.0 mm
03:17 4.7 °C 3.0 °C 1014.1 hPa Calm   4.7 km/h 88 % 0.0 mm
03:22 4.6 °C 3.0 °C 1014.1 hPa Calm     88 % 0.0 mm
03:27 4.6 °C 3.0 °C 1014.1 hPa Calm     88 % 0.0 mm
03:32 4.7 °C 3.0 °C 1014.1 hPa Calm     88 % 0.0 mm
03:37 4.7 °C 3.0 °C 1014.1 hPa NNE 1.4 km/h 4.0 km/h 88 % 0.0 mm
03:42 4.6 °C 3.0 °C 1014.1 hPa Calm   5.5 km/h 88 % 0.0 mm
03:47 4.6 °C 3.0 °C 1014.1 hPa Calm   5.5 km/h 89 % 0.0 mm
03:52 4.5 °C 3.0 °C 1014.1 hPa Calm   3.5 km/h 90 % 0.0 mm
03:54 4.4 °C 3.0 °C 1014.1 hPa Calm   3.5 km/h 90 % 0.0 mm
03:59 4.4 °C 3.0 °C 1014.1 hPa Calm     90 % 0.0 mm
04:05 4.5 °C 3.0 °C 1014.1 hPa North 4.7 km/h 4.7 km/h 91 % 0.0 mm
04:10 4.6 °C 3.0 °C 1014.1 hPa NNE 6.4 km/h 6.4 km/h 91 % 0.0 mm
04:15 4.7 °C 3.0 °C 1014.1 hPa NE 6.4 km/h 7.6 km/h 92 % 0.0 mm
04:20 4.6 °C 3.0 °C 1014.1 hPa NNE 5.8 km/h 7.6 km/h 92 % 0.0 mm
04:25 4.6 °C 3.0 °C 1014.1 hPa Calm   6.4 km/h 92 % 0.0 mm
04:30 4.6 °C 3.0 °C 1014.1 hPa NNE 4.0 km/h 6.9 km/h 92 % 0.0 mm
04:35 4.6 °C 3.0 °C 1014.1 hPa NNE 4.3 km/h 6.9 km/h 92 % 0.0 mm
04:40 4.5 °C 3.0 °C 1014.1 hPa NNE 5.8 km/h 6.9 km/h 92 % 0.0 mm
04:45 4.5 °C 3.0 °C 1014.1 hPa Calm   6.9 km/h 92 % 0.0 mm
04:50 4.5 °C 3.0 °C 1014.1 hPa Calm   6.4 km/h 92 % 0.0 mm
04:55 4.4 °C 3.0 °C 1014.1 hPa Calm   5.5 km/h 92 % 0.0 mm
05:00 4.4 °C 3.0 °C 1014.1 hPa Calm   5.5 km/h 93 % 0.0 mm
05:05 4.4 °C 3.0 °C 1014.1 hPa Calm   4.0 km/h 93 % 0.0 mm
05:10 4.4 °C 3.0 °C 1014.1 hPa Calm   4.3 km/h 93 % 0.0 mm
05:15 4.2 °C 3.0 °C 1014.1 hPa Calm   4.3 km/h 93 % 0.0 mm
05:20 4.1 °C 3.0 °C 1014.1 hPa Calm   4.0 km/h 92 % 0.0 mm
05:25 3.9 °C 3.0 °C 1014.1 hPa Calm     92 % 0.0 mm
05:30 3.7 °C 3.0 °C 1014.1 hPa Calm     92 % 0.0 mm
05:35 3.4 °C 2.0 °C 1014.1 hPa Calm     91 % 0.0 mm
05:40 3.2 °C 2.0 °C 1014.1 hPa Calm     91 % 0.0 mm
05:45 3.2 °C 2.0 °C 1014.1 hPa Calm     92 % 0.0 mm
05:50 3.1 °C 2.0 °C 1014.1 hPa Calm     92 % 0.0 mm
05:55 3.0 °C 2.0 °C 1014.1 hPa Calm     92 % 0.0 mm
06:00 3.2 °C 3.0 °C 1014.1 hPa Calm   5.0 km/h 93 % 0.0 mm
06:05 3.1 °C 2.0 °C 1015.1 hPa North 4.0 km/h 5.0 km/h 93 % 0.0 mm
06:10 3.1 °C 2.0 °C 1015.1 hPa Calm   4.7 km/h 93 % 0.0 mm
06:15 3.2 °C 3.0 °C 1015.1 hPa NNE 4.7 km/h 5.0 km/h 94 % 0.0 mm
06:20 3.2 °C 3.0 °C 1015.1 hPa Calm   5.0 km/h 94 % 0.0 mm
06:25 3.1 °C 2.0 °C 1015.1 hPa Calm   4.7 km/h 94 % 0.0 mm
06:30 3.0 °C 2.0 °C 1015.1 hPa Calm     94 % 0.0 mm
06:31 3.0 °C 2.0 °C 1015.1 hPa Calm     94 % 0.0 mm
06:36 2.8 °C 2.0 °C 1015.1 hPa Calm     94 % 0.0 mm
06:41 2.7 °C 2.0 °C 1015.1 hPa Calm     94 % 0.0 mm
06:46 2.6 °C 2.0 °C 1015.1 hPa Calm     94 % 0.0 mm
06:51 2.6 °C 2.0 °C 1015.1 hPa Calm     94 % 0.0 mm
06:56 2.6 °C 2.0 °C 1015.1 hPa Calm     94 % 0.0 mm
07:01 2.7 °C 2.0 °C 1015.1 hPa Calm     95 % 0.0 mm
07:06 2.9 °C 3.0 °C 1015.1 hPa Calm     95 % 0.0 mm
07:11 3.2 °C 3.0 °C 1015.1 hPa Calm   2.1 km/h 96 % 0.0 mm
07:17 3.4 °C 3.0 °C 1015.1 hPa Calm   2.1 km/h 96 % 0.0 mm
07:22 3.8 °C 3.0 °C 1014.1 hPa Calm     97 % 0.0 mm
07:27 4.1 °C 4.0 °C 1014.1 hPa Calm     97 % 0.0 mm
07:32 4.5 °C 4.0 °C 1014.1 hPa Calm     97 % 0.0 mm
07:37 5.0 °C 5.0 °C 1014.1 hPa Calm     97 % 0.0 mm
07:42 5.6 °C 6.0 °C 1014.1 hPa Calm     97 % 0.0 mm
07:47 6.2 °C 6.0 °C 1014.1 hPa Calm     97 % 0.0 mm
07:52 6.8 °C 7.0 °C 1015.1 hPa Calm     98 % 0.0 mm
07:57 7.4 °C 7.0 °C 1015.1 hPa Calm     97 % 0.0 mm
08:02 8.0 °C 8.0 °C 1015.1 hPa Calm   1.8 km/h 96 % 0.0 mm
08:07 8.6 °C 9.0 °C 1014.1 hPa Calm   1.8 km/h 96 % 0.0 mm
08:12 9.0 °C 9.0 °C 1014.1 hPa NE 4.0 km/h 4.7 km/h 95 % 0.0 mm
08:17 9.3 °C 9.0 °C 1014.1 hPa Calm   5.0 km/h 93 % 0.0 mm
08:22 9.5 °C 9.0 °C 1014.1 hPa Calm   5.5 km/h 93 % 0.0 mm
08:25 10.0 °C 9.0 °C 1014.1 hPa Calm   5.5 km/h 91 % 0.0 mm
08:30 10.2 °C 9.0 °C 1014.1 hPa Calm   5.0 km/h 90 % 0.0 mm
08:35 10.6 °C 9.0 °C 1014.1 hPa Calm   5.0 km/h 88 % 0.0 mm
08:40 10.9 °C 9.0 °C 1015.1 hPa Calm   4.3 km/h 86 % 0.0 mm
08:46 11.3 °C 9.0 °C 1015.1 hPa Calm   4.3 km/h 85 % 0.0 mm
08:51 11.5 °C 9.0 °C 1015.1 hPa NNW 2.1 km/h 2.6 km/h 84 % 0.0 mm
08:56 11.9 °C 9.0 °C 1015.1 hPa NNW 1.4 km/h 5.0 km/h 83 % 0.0 mm
09:01 12.4 °C 10.0 °C 1015.1 hPa North 5.0 km/h 5.8 km/h 82 % 0.0 mm
09:06 12.6 °C 9.0 °C 1015.1 hPa Calm   6.9 km/h 79 % 0.0 mm
09:11 13.2 °C 10.0 °C 1015.1 hPa Calm   6.9 km/h 78 % 0.0 mm
09:16 13.5 °C 10.0 °C 1015.1 hPa Calm   4.0 km/h 76 % 0.0 mm
09:21 13.8 °C 9.0 °C 1015.1 hPa Calm   6.4 km/h 74 % 0.0 mm
09:26 13.9 °C 10.0 °C 1015.1 hPa Calm   6.4 km/h 74 % 0.0 mm
09:31 14.1 °C 9.0 °C 1015.1 hPa NNW 2.6 km/h 4.0 km/h 70 % 0.0 mm
09:36 14.5 °C 10.0 °C 1015.1 hPa NE 5.8 km/h 5.8 km/h 71 % 0.0 mm
09:41 14.7 °C 10.0 °C 1015.1 hPa Calm   6.9 km/h 71 % 0.0 mm
09:47 14.8 °C 9.0 °C 1015.1 hPa North 5.0 km/h 6.9 km/h 69 % 0.0 mm
09:51 14.8 °C 9.0 °C 1015.1 hPa North 4.3 km/h 6.9 km/h 69 % 0.0 mm
09:56 15.0 °C 9.0 °C 1015.1 hPa Calm   9.7 km/h 68 % 0.0 mm
10:01 15.4 °C 10.0 °C 1015.1 hPa North 3.2 km/h 9.7 km/h 68 % 0.0 mm
10:06 15.4 °C 10.0 °C 1015.1 hPa North 5.0 km/h 6.9 km/h 68 % 0.0 mm
10:11 15.7 °C 9.0 °C 1015.1 hPa Calm   9.0 km/h 66 % 0.0 mm
10:16 16.1 °C 10.0 °C 1015.1 hPa North 9.0 km/h 9.0 km/h 65 % 0.0 mm
10:21 16.5 °C 10.0 °C 1016.1 hPa NNE 9.3 km/h 9.3 km/h 63 % 0.0 mm
10:26 16.5 °C 9.0 °C 1016.1 hPa NNE 8.7 km/h 9.3 km/h 61 % 0.0 mm
10:31 16.7 °C 9.0 °C 1016.1 hPa NE 1.4 km/h 9.7 km/h 59 % 0.0 mm
10:36 16.8 °C 9.0 °C 1016.1 hPa North 6.4 km/h 10.5 km/h 58 % 0.0 mm
10:41 17.0 °C 8.0 °C 1016.1 hPa North 7.9 km/h 10.5 km/h 55 % 0.0 mm
10:46 17.1 °C 8.0 °C 1016.1 hPa NE 11.9 km/h 13.7 km/h 54 % 0.0 mm
10:51 17.2 °C 8.0 °C 1016.1 hPa NE 6.9 km/h 13.7 km/h 53 % 0.0 mm
10:56 17.3 °C 8.0 °C 1016.1 hPa NE 5.5 km/h 11.9 km/h 52 % 0.0 mm
11:01 17.5 °C 8.0 °C 1016.1 hPa Calm   12.2 km/h 52 % 0.0 mm
11:07 17.5 °C 8.0 °C 1016.1 hPa Calm   12.2 km/h 51 % 0.0 mm
11:12 17.5 °C 8.0 °C 1016.1 hPa NW 9.7 km/h 10.5 km/h 51 % 0.0 mm
11:17 17.5 °C 7.0 °C 1016.1 hPa NE 11.9 km/h 11.9 km/h 50 % 0.0 mm
11:22 17.4 °C 6.0 °C 1016.1 hPa North 12.2 km/h 12.2 km/h 48 % 0.0 mm
11:27 17.8 °C 7.0 °C 1016.1 hPa Calm   12.2 km/h 49 % 0.0 mm
11:32 18.2 °C 7.0 °C 1016.1 hPa NNE 5.5 km/h 12.2 km/h 48 % 0.0 mm
11:37 18.6 °C 8.0 °C 1015.1 hPa NE 10.5 km/h 11.6 km/h 49 % 0.0 mm
11:42 18.5 °C 8.0 °C 1015.1 hPa Calm   10.5 km/h 48 % 0.0 mm
11:47 18.7 °C 7.0 °C 1015.1 hPa West 2.1 km/h 11.1 km/h 47 % 0.0 mm
11:52 18.9 °C 7.0 °C 1015.1 hPa NNW 6.4 km/h 12.2 km/h 46 % 0.0 mm
11:57 18.7 °C 7.0 °C 1015.1 hPa Calm   12.2 km/h 47 % 0.0 mm
12:02 18.7 °C 7.0 °C 1015.1 hPa NE 9.0 km/h 10.5 km/h 46 % 0.0 mm
12:07 18.5 °C 7.0 °C 1015.1 hPa North 7.9 km/h 13.7 km/h 46 % 0.0 mm
12:12 18.5 °C 7.0 °C 1015.1 hPa North 6.9 km/h 13.7 km/h 46 % 0.0 mm
12:17 18.3 °C 7.0 °C 1015.1 hPa North 8.7 km/h 12.2 km/h 47 % 0.0 mm
12:22 18.4 °C 7.0 °C 1015.1 hPa NNW 9.0 km/h 12.2 km/h 46 % 0.0 mm
12:28 18.0 °C 6.0 °C 1015.1 hPa North 9.7 km/h 14.0 km/h 45 % 0.0 mm
12:33 17.5 °C 6.0 °C 1015.1 hPa North 12.6 km/h 16.6 km/h 46 % 0.0 mm
12:38 17.3 °C 6.0 °C 1015.1 hPa North 5.0 km/h 16.6 km/h 46 % 0.0 mm
12:43 17.5 °C 6.0 °C 1015.1 hPa North 13.7 km/h 15.8 km/h 46 % 0.0 mm
12:48 17.3 °C 6.0 °C 1015.1 hPa NNW 13.7 km/h 15.8 km/h 47 % 0.0 mm
12:53 17.4 °C 6.0 °C 1015.1 hPa WNW 4.0 km/h 14.3 km/h 47 % 0.0 mm
12:58 17.1 °C 6.0 °C 1015.1 hPa North 6.4 km/h 14.3 km/h 47 % 0.0 mm
13:03 16.7 °C 6.0 °C 1015.1 hPa North 9.3 km/h 14.0 km/h 47 % 0.0 mm
13:08 16.6 °C 6.0 °C 1015.1 hPa North 9.3 km/h 14.0 km/h 48 % 0.0 mm
13:13 16.1 °C 5.0 °C 1015.1 hPa NNW 8.7 km/h 16.6 km/h 48 % 0.0 mm
13:18 15.8 °C 5.0 °C 1015.1 hPa North 11.6 km/h 17.2 km/h 49 % 0.0 mm
13:23 15.6 °C 5.0 °C 1016.1 hPa WNW 6.4 km/h 17.2 km/h 49 % 0.0 mm
13:28 15.5 °C 5.0 °C 1016.1 hPa NNW 11.6 km/h 16.9 km/h 49 % 0.0 mm
13:33 15.6 °C 5.0 °C 1016.1 hPa NNW 12.2 km/h 16.9 km/h 49 % 0.0 mm
13:38 15.8 °C 5.0 °C 1016.1 hPa NE 15.4 km/h 17.2 km/h 49 % 0.0 mm
13:43 16.1 °C 6.0 °C 1016.1 hPa North 13.0 km/h 17.2 km/h 49 % 0.0 mm
13:48 16.1 °C 5.0 °C 1016.1 hPa North 13.7 km/h 17.2 km/h 48 % 0.0 mm
13:53 16.2 °C 6.0 °C 1016.1 hPa NNE 16.6 km/h 17.2 km/h 48 % 0.0 mm
13:58 16.3 °C 6.0 °C 1016.1 hPa North 6.1 km/h 16.6 km/h 49 % 0.0 mm
14:03 16.3 °C 6.0 °C 1016.1 hPa NW 5.0 km/h 16.3 km/h 48 % 0.0 mm
14:08 16.4 °C 6.0 °C 1016.1 hPa North 10.1 km/h 19.8 km/h 48 % 0.0 mm
14:13 16.6 °C 6.0 °C 1016.1 hPa NNW 15.8 km/h 19.8 km/h 48 % 0.0 mm
14:18 16.3 °C 6.0 °C 1016.1 hPa NE 15.8 km/h 18.0 km/h 48 % 0.0 mm
14:23 16.2 °C 6.0 °C 1016.1 hPa North 13.7 km/h 19.8 km/h 49 % 0.0 mm
14:28 16.4 °C 6.0 °C 1016.1 hPa NNE 19.5 km/h 19.8 km/h 49 % 0.0 mm
14:33 16.5 °C 6.0 °C 1016.1 hPa NW 16.6 km/h 20.1 km/h 48 % 0.0 mm
14:38 16.4 °C 6.0 °C 1015.1 hPa North 19.5 km/h 20.1 km/h 48 % 0.0 mm
14:43 16.1 °C 6.0 °C 1015.1 hPa North 16.3 km/h 22.4 km/h 49 % 0.0 mm
14:48 15.9 °C 6.0 °C 1015.1 hPa NNE 13.0 km/h 24.8 km/h 50 % 0.0 mm
14:53 15.8 °C 6.0 °C 1016.1 hPa North 16.3 km/h 24.8 km/h 50 % 0.0 mm
14:58 15.6 °C 6.0 °C 1016.1 hPa North 16.9 km/h 23.3 km/h 50 % 0.0 mm
15:04 15.5 °C 6.0 °C 1016.1 hPa North 13.7 km/h 21.2 km/h 51 % 0.0 mm
15:09 15.4 °C 6.0 °C 1016.8 hPa North 19.8 km/h 23.0 km/h 51 % 0.0 mm
15:14 15.3 °C 6.0 °C 1016.8 hPa North 17.2 km/h 23.0 km/h 51 % 0.0 mm
15:19 15.2 °C 6.0 °C 1016.8 hPa NNW 12.6 km/h 20.1 km/h 51 % 0.0 mm
15:24 15.1 °C 6.0 °C 1016.1 hPa NW 14.3 km/h 20.9 km/h 52 % 0.0 mm
15:29 15.0 °C 6.0 °C 1016.1 hPa NE 9.0 km/h 20.9 km/h 52 % 0.0 mm
15:34 14.7 °C 6.0 °C 1016.1 hPa North 9.3 km/h 20.9 km/h 55 % 0.0 mm
15:39 14.7 °C 6.0 °C 1016.8 hPa North 12.6 km/h 20.9 km/h 57 % 0.0 mm
15:44 14.3 °C 6.0 °C 1016.8 hPa NE 17.7 km/h 21.2 km/h 56 % 0.0 mm
15:45 14.3 °C 6.0 °C 1016.8 hPa NNE 10.5 km/h 21.2 km/h 56 % 0.0 mm
15:50 14.2 °C 7.0 °C 1016.8 hPa WNW 9.0 km/h 21.2 km/h 59 % 0.0 mm
15:55 14.1 °C 7.0 °C 1016.8 hPa NNW 14.0 km/h 16.9 km/h 61 % 0.0 mm
16:00 14.0 °C 7.0 °C 1016.8 hPa NNE 14.0 km/h 17.7 km/h 63 % 0.0 mm
16:05 14.1 °C 8.0 °C 1016.8 hPa North 12.6 km/h 17.7 km/h 64 % 0.0 mm
16:10 14.2 °C 8.0 °C 1016.8 hPa NE 10.5 km/h 16.9 km/h 65 % 0.0 mm
16:25 13.5 °C 8.0 °C 1016.8 hPa North 9.0 km/h 21.2 km/h 69 % 0.0 mm
16:30 13.4 °C 9.0 °C 1016.8 hPa NW 6.1 km/h 21.2 km/h 71 % 0.0 mm
16:35 13.2 °C 9.0 °C 1016.8 hPa North 12.6 km/h 13.7 km/h 71 % 0.0 mm
16:42 13.0 °C 8.0 °C 1016.8 hPa North 10.1 km/h 17.2 km/h 71 % 0.0 mm
16:49 12.9 °C 9.0 °C 1016.8 hPa NNE 4.0 km/h 17.2 km/h 74 % 0.0 mm
16:56 13.0 °C 9.0 °C 1016.8 hPa NNW 10.5 km/h 10.5 km/h 78 % 0.0 mm
17:01 12.9 °C 9.0 °C 1016.8 hPa North 1.8 km/h 11.6 km/h 77 % 0.0 mm
17:06 12.9 °C 9.0 °C 1016.8 hPa North 5.8 km/h 11.9 km/h 77 % 0.0 mm
17:11 13.1 °C 10.0 °C 1016.8 hPa NW 8.7 km/h 14.0 km/h 79 % 0.0 mm
17:16 13.0 °C 10.0 °C 1016.8 hPa North 5.5 km/h 14.0 km/h 79 % 0.0 mm
17:21 12.9 °C 10.0 °C 1016.8 hPa NW 2.1 km/h 12.6 km/h 80 % 0.0 mm
17:26 12.8 °C 10.0 °C 1016.8 hPa NNE 10.1 km/h 11.9 km/h 79 % 0.0 mm
17:31 12.6 °C 10.0 °C 1016.8 hPa North 6.9 km/h 11.9 km/h 81 % 0.0 mm
17:36 12.3 °C 10.0 °C 1018.2 hPa ENE 6.9 km/h 11.9 km/h 82 % 0.0 mm
17:41 12.3 °C 10.0 °C 1018.2 hPa North 15.8 km/h 15.8 km/h 83 % 0.0 mm
17:46 12.2 °C 9.0 °C 1018.2 hPa NNW 11.1 km/h 15.8 km/h 82 % 0.0 mm
17:51 12.3 °C 10.0 °C 1016.8 hPa NNW 5.0 km/h 13.7 km/h 82 % 0.0 mm
17:56 12.2 °C 9.0 °C 1016.8 hPa NNW 5.8 km/h 13.7 km/h 83 % 0.0 mm
18:01 12.2 °C 9.0 °C 1016.8 hPa NNW 4.7 km/h 12.6 km/h 83 % 0.0 mm
18:06 12.1 °C 10.0 °C 1016.8 hPa NNW 7.9 km/h 13.0 km/h 84 % 0.0 mm
18:11 12.1 °C 10.0 °C 1016.8 hPa WNW 4.7 km/h 13.0 km/h 84 % 0.0 mm
18:16 12.0 °C 10.0 °C 1016.8 hPa NNW 6.4 km/h 13.0 km/h 84 % 0.0 mm
18:21 12.0 °C 10.0 °C 1016.8 hPa North 6.1 km/h 13.0 km/h 84 % 0.0 mm
18:27 11.9 °C 10.0 °C 1016.8 hPa NNW 12.2 km/h 12.2 km/h 85 % 0.0 mm
18:32 11.9 °C 10.0 °C 1016.8 hPa WNW 3.5 km/h 12.2 km/h 87 % 0.0 mm
18:37 11.7 °C 9.0 °C 1016.8 hPa Calm   12.2 km/h 86 % 0.0 mm
18:42 11.7 °C 9.0 °C 1016.8 hPa WNW 6.9 km/h 11.9 km/h 86 % 0.0 mm
18:47 11.6 °C 10.0 °C 1016.8 hPa North 5.5 km/h 11.9 km/h 87 % 0.0 mm
18:52 11.4 °C 9.0 °C 1016.8 hPa NNW 7.9 km/h 12.2 km/h 88 % 0.0 mm
18:57 11.3 °C 9.0 °C 1016.8 hPa North 2.6 km/h 12.2 km/h 88 % 0.0 mm
19:02 11.2 °C 9.0 °C 1016.8 hPa North 4.7 km/h 12.6 km/h 88 % 0.0 mm
19:07 11.2 °C 10.0 °C 1016.8 hPa NW 5.0 km/h 12.6 km/h 89 % 0.0 mm
19:12 11.2 °C 10.0 °C 1016.8 hPa North 4.0 km/h 9.7 km/h 89 % 0.0 mm
19:17 11.2 °C 10.0 °C 1016.8 hPa NNW 8.7 km/h 9.0 km/h 90 % 0.0 mm
19:22 11.1 °C 10.0 °C 1016.8 hPa North 9.3 km/h 9.3 km/h 91 % 0.0 mm
19:27 11.0 °C 10.0 °C 1016.8 hPa NNW 5.5 km/h 9.3 km/h 91 % 0.0 mm
19:28 11.0 °C 10.0 °C 1016.8 hPa West 3.2 km/h 9.3 km/h 91 % 0.0 mm
19:33 11.0 °C 10.0 °C 1016.8 hPa NW 4.3 km/h 10.5 km/h 91 % 0.0 mm
19:38 11.0 °C 10.0 °C 1016.8 hPa NNW 3.5 km/h 10.5 km/h 92 % 0.0 mm
19:43 10.9 °C 10.0 °C 1016.8 hPa Calm   9.7 km/h 92 % 0.0 mm
19:48 10.9 °C 10.0 °C 1016.8 hPa WNW 5.5 km/h 7.6 km/h 93 % 0.0 mm
19:53 10.9 °C 10.0 °C 1016.8 hPa NNW 4.3 km/h 7.6 km/h 93 % 0.0 mm
19:58 10.9 °C 10.0 °C 1016.8 hPa NNW 5.8 km/h 7.6 km/h 93 % 0.0 mm
20:03 10.9 °C 10.0 °C 1016.8 hPa West 4.0 km/h 6.1 km/h 93 % 0.0 mm
20:08 10.9 °C 10.0 °C 1016.8 hPa NNW 5.8 km/h 8.7 km/h 94 % 0.0 mm
20:13 10.9 °C 10.0 °C 1016.8 hPa NNW 4.7 km/h 8.7 km/h 94 % 0.0 mm
20:18 10.9 °C 10.0 °C 1016.8 hPa North 7.9 km/h 7.9 km/h 94 % 0.0 mm
20:23 10.9 °C 10.0 °C 1016.8 hPa WNW 1.8 km/h 9.0 km/h 94 % 0.0 mm
20:28 10.9 °C 10.0 °C 1016.8 hPa Calm   9.3 km/h 94 % 0.0 mm
20:33 10.9 °C 10.0 °C 1016.8 hPa Calm   9.3 km/h 94 % 0.0 mm
20:39 10.8 °C 10.0 °C 1016.8 hPa NNW 5.5 km/h 10.5 km/h 94 % 0.0 mm
20:44 10.8 °C 10.0 °C 1016.8 hPa NW 4.0 km/h 10.5 km/h 94 % 0.0 mm
20:49 10.7 °C 10.0 °C 1016.8 hPa North 4.3 km/h 6.9 km/h 94 % 0.0 mm
20:54 10.7 °C 10.0 °C 1016.8 hPa NNW 1.8 km/h 7.9 km/h 94 % 0.0 mm
20:59 10.7 °C 10.0 °C 1016.8 hPa Calm   7.9 km/h 94 % 0.0 mm
21:04 10.6 °C 10.0 °C 1016.8 hPa WNW 2.6 km/h 5.5 km/h 94 % 0.0 mm
21:09 10.6 °C 10.0 °C 1016.8 hPa Calm   5.0 km/h 94 % 0.0 mm
21:14 10.6 °C 10.0 °C 1016.8 hPa Calm   6.9 km/h 94 % 0.0 mm
21:19 10.6 °C 10.0 °C 1016.8 hPa NW 6.1 km/h 6.9 km/h 94 % 0.0 mm
21:24 10.5 °C 10.0 °C 1016.1 hPa Calm   7.9 km/h 94 % 0.0 mm
21:29 10.5 °C 10.0 °C 1016.1 hPa WNW 6.4 km/h 7.9 km/h 94 % 0.0 mm
21:34 10.5 °C 10.0 °C 1016.1 hPa NNW 4.3 km/h 9.3 km/h 95 % 0.0 mm
21:39 10.5 °C 10.0 °C 1016.8 hPa NNW 4.3 km/h 9.3 km/h 95 % 0.0 mm
21:44 10.5 °C 10.0 °C 1016.8 hPa North 5.8 km/h 6.9 km/h 95 % 0.0 mm
21:47 10.4 °C 10.0 °C 1016.8 hPa NNW 1.8 km/h 6.1 km/h 95 % 0.0 mm
21:52 10.5 °C 10.0 °C 1016.8 hPa WNW 2.6 km/h 6.1 km/h 95 % 0.0 mm
21:57 10.4 °C 10.0 °C 1016.8 hPa Calm   9.0 km/h 95 % 0.0 mm
22:03 10.4 °C 10.0 °C 1016.8 hPa North 4.0 km/h 9.0 km/h 95 % 0.0 mm
22:08 10.3 °C 10.0 °C 1016.8 hPa Calm   8.7 km/h 95 % 0.0 mm
22:13 10.3 °C 10.0 °C 1016.8 hPa Calm   5.8 km/h 95 % 0.0 mm
22:18 10.3 °C 10.0 °C 1016.8 hPa Calm   5.8 km/h 95 % 0.3 mm
22:23 10.2 °C 10.0 °C 1016.8 hPa Calm   5.0 km/h 95 % 0.3 mm
22:28 10.1 °C 9.0 °C 1016.8 hPa Calm     95 % 0.3 mm
22:33 10.0 °C 9.0 °C 1016.8 hPa Calm     95 % 0.3 mm
22:38 9.9 °C 9.0 °C 1016.8 hPa NNW 2.1 km/h 2.1 km/h 95 % 0.3 mm
22:43 9.9 °C 9.0 °C 1016.8 hPa Calm   4.0 km/h 95 % 0.3 mm
22:48 9.8 °C 9.0 °C 1016.8 hPa NW 3.5 km/h 4.0 km/h 95 % 0.3 mm
22:53 9.7 °C 9.0 °C 1016.8 hPa NE 3.5 km/h 5.0 km/h 95 % 0.3 mm
22:58 9.6 °C 9.0 °C 1016.8 hPa Calm   5.0 km/h 96 % 0.3 mm
23:03 9.6 °C 9.0 °C 1016.8 hPa Calm   4.0 km/h 96 % 0.3 mm
23:08 9.5 °C 9.0 °C 1016.8 hPa WNW 1.4 km/h 4.3 km/h 96 % 0.3 mm
23:13 9.4 °C 9.0 °C 1016.8 hPa WNW 1.8 km/h 4.3 km/h 96 % 0.3 mm
23:18 9.4 °C 9.0 °C 1016.8 hPa Calm   2.6 km/h 96 % 0.0 mm
23:23 9.4 °C 9.0 °C 1016.8 hPa WNW 1.4 km/h 3.5 km/h 96 % 0.0 mm
23:28 9.3 °C 9.0 °C 1016.8 hPa West 3.2 km/h 5.0 km/h 96 % 0.0 mm
23:33 9.3 °C 9.0 °C 1016.8 hPa West 3.2 km/h 5.0 km/h 96 % 0.0 mm
23:39 9.2 °C 9.0 °C 1016.8 hPa Calm   4.3 km/h 96 % 0.0 mm
23:43 9.2 °C 9.0 °C 1016.8 hPa Calm   3.5 km/h 96 % 0.0 mm
23:49 9.3 °C 9.0 °C 1016.8 hPa WNW 4.0 km/h 5.8 km/h 97 % 0.0 mm
23:54 9.3 °C 9.0 °C 1016.8 hPa NNW 7.6 km/h 10.1 km/h 97 % 0.0 mm
23:59 9.3 °C 9.0 °C 1016.8 hPa WNW 4.7 km/h 10.1 km/h 98 % 0.0 mm
Le Gheer Warneton
Courtoisie de Weather Underground - 2.25 mb

Mise a jour :
Généré par Cumulus ()